Kuiper-00137

operational
NORAD ID: 65963 Int'l Des: 2025-228 Owner: KUIP Country: US Constellation: kuiper
NOTLE

About Kuiper-00137

Description loading...

Live Position

Loading 3D Globe...

Upcoming Passes

Altitude History

Altitude vs Time

uPlot chart will show altitude changes over time

Two-Line Element Set

1 65963U 25228S 25317.55898878 .00072068 00000-0 20933-2 0 9996
2 65963 51.8791 161.2275 0004436 257.3712 102.6778 15.34818338 5932
Epoch: Nov 13, 2025 • Age: 38 hours

Current Status

Altitude 461.8 km
Velocity 7.64 km/s
Sub-Earth Point 10.35°N, 62.8°E
Launch Date Oct 14, 2025
Age 32 days
Type internet

Technical Details

Classification Payload
Mass 490.00 kg
Dry Mass 490.00 kg
Total Mass 490.00 kg
Length 1.80 m
Diameter 0.70 m
Span 5.00 m
Shape Box + 2 pan
Manufacturer KUIP
Bus Type Kuiper
Phase Status In Orbit
Owner/State KUIP/US

Large Constellations

Loading constellations...